• en Suisse
  • Liste des pays
  • À 7 jours
  • Température de l'eau
  • Carte satellitaire
  • Carte météo
  • Widgets météo
  • user-avatar
    Se connecter

    Météo par heure à Mbandaka

    Ce jour, 22 Septembre, Samedi

    Heure Température Précipitation Vent Pression Humidité
    00:00 +24°C° 0 mm 0 m/s 729 mmHg 80%
    01:00 +24°C° 0 mm 0 m/s 729 mmHg 82%
    02:00 +23°C° 0 mm 0 m/s 729 mmHg 84%
    03:00 +23°C° 0 mm 0 m/s 729 mmHg 85%
    04:00 +23°C° 0 mm 0 m/s 729 mmHg 86%
    05:00 +25°C° 0.3 mm 1 m/s 729 mmHg 86%
    06:00 +26°C° 0.3 mm 1 m/s 730 mmHg 87%
    07:00 +26°C° 0.3 mm 1 m/s 730 mmHg 87%
    08:00 +29°C° 0 mm 1 m/s 730 mmHg 75%
    09:00 +32°C° 0 mm 1 m/s 731 mmHg 62%
    10:00 +35°C° 0 mm 1 m/s 731 mmHg 49%
    11:00 +36°C° 0 mm 1 m/s 730 mmHg 44%
    12:00 +36°C° 0 mm 0 m/s 729 mmHg 40%
    13:00 +38°C° 0 mm 0 m/s 728 mmHg 35%
    14:00 +36°C° 0 mm 0 m/s 728 mmHg 38%
    15:00 +35°C° 0 mm 0 m/s 728 mmHg 42%
    16:00 +33°C° 0 mm 0 m/s 727 mmHg 46%
    17:00 +33°C° 0.3 mm 1 m/s 727 mmHg 52%
    18:00 +31°C° 0.3 mm 1 m/s 728 mmHg 59%
    19:00 +29°C° 0.3 mm 1 m/s 728 mmHg 66%
    20:00 +28°C° 1.4 mm 1 m/s 728 mmHg 74%
    21:00 +27°C° 1.4 mm 1 m/s 729 mmHg 83%
    22:00 +26°C° 1.4 mm 1 m/s 730 mmHg 91%
    23:00 +25°C° 1.2 mm 1 m/s 730 mmHg 93%

    Demain, 23 Septembre, Dimanche

    Heure Température Précipitation Vent Pression Humidité
    00:00 +25°C° 1.2 mm 1 m/s 730 mmHg 94%
    01:00 +25°C° 1.2 mm 1 m/s 730 mmHg 96%
    02:00 +25°C° 1 mm 1 m/s 730 mmHg 96%
    03:00 +25°C° 1 mm 1 m/s 730 mmHg 96%
    04:00 +24°C° 1 mm 1 m/s 730 mmHg 96%
    05:00 +25°C° 0 mm 1 m/s 730 mmHg 95%
    06:00 +25°C° 0 mm 1 m/s 731 mmHg 94%
    07:00 +25°C° 0 mm 1 m/s 731 mmHg 93%
    08:00 +27°C° 0 mm 1 m/s 732 mmHg 84%
    09:00 +29°C° 0 mm 2 m/s 732 mmHg 75%
    10:00 +30°C° 0 mm 2 m/s 733 mmHg 65%
    11:00 +32°C° 0 mm 2 m/s 732 mmHg 60%
    12:00 +34°C° 0 mm 2 m/s 731 mmHg 54%
    13:00 +35°C° 0 mm 2 m/s 730 mmHg 49%
    14:00 +35°C° 0.1 mm 2 m/s 729 mmHg 51%
    15:00 +34°C° 0.1 mm 2 m/s 729 mmHg 53%
    16:00 +34°C° 0.1 mm 2 m/s 728 mmHg 55%
    17:00 +31°C° 0.1 mm 1 m/s 729 mmHg 62%
    18:00 +29°C° 0.1 mm 1 m/s 729 mmHg 69%
    19:00 +28°C° 0.1 mm 1 m/s 730 mmHg 76%
    20:00 +27°C° 0 mm 1 m/s 730 mmHg 79%
    21:00 +27°C° 0 mm 1 m/s 730 mmHg 81%
    22:00 +26°C° 0 mm 1 m/s 730 mmHg 83%
    23:00 +26°C° 0 mm 1 m/s 730 mmHg 84%

    Après-demain, 24 Septembre, Lundi

    Heure Température Précipitation Vent Pression Humidité
    00:00 +26°C° 0 mm 1 m/s 730 mmHg 85%
    01:00 +25°C° 0 mm 1 m/s 730 mmHg 86%
    02:00 +25°C° 0 mm 1 m/s 729 mmHg 87%
    03:00 +25°C° 0 mm 1 m/s 729 mmHg 88%
    04:00 +24°C° 0 mm 1 m/s 729 mmHg 90%
    05:00 +25°C° 0.1 mm 1 m/s 730 mmHg 87%
    06:00 +26°C° 0.1 mm 1 m/s 731 mmHg 84%
    07:00 +27°C° 0.1 mm 2 m/s 732 mmHg 81%
    08:00 +28°C° 1.1 mm 2 m/s 732 mmHg 79%
    09:00 +29°C° 1.1 mm 1 m/s 733 mmHg 77%
    10:00 +30°C° 1.1 mm 1 m/s 733 mmHg 76%
    11:00 +30°C° 2.6 mm 1 m/s 732 mmHg 79%
    12:00 +29°C° 2.6 mm 1 m/s 731 mmHg 83%
    13:00 +28°C° 2.6 mm 1 m/s 730 mmHg 86%
    14:00 +28°C° 0.1 mm 1 m/s 730 mmHg 83%
    15:00 +28°C° 0.1 mm 1 m/s 729 mmHg 80%
    16:00 +29°C° 0.1 mm 1 m/s 729 mmHg 77%
    17:00 +25°C° 0 mm 0 m/s 729 mmHg 81%
    18:00 +24°C° 0 mm 0 m/s 730 mmHg 84%
    19:00 +23°C° 0 mm 0 m/s 730 mmHg 88%
    20:00 +23°C° 0 mm 0 m/s 730 mmHg 89%
    21:00 +23°C° 0 mm 0 m/s 731 mmHg 91%
    22:00 +24°C° 0 mm 1 m/s 731 mmHg 92%
    23:00 +24°C° 0 mm 1 m/s 731 mmHg 93%

    25 Septembre, Mardi

    Heure Température Précipitation Vent Pression Humidité
    00:00 +24°C° 0 mm 1 m/s 730 mmHg 95%
    01:00 +23°C° 0 mm 1 m/s 730 mmHg 96%
    02:00 +21°C° 0 mm 0 m/s 730 mmHg 96%
    03:00 +21°C° 0 mm 0 m/s 730 mmHg 97%
    04:00 +21°C° 0 mm 0 m/s 730 mmHg 97%
    05:00 +22°C° 0.1 mm 0 m/s 731 mmHg 94%
    06:00 +23°C° 0.1 mm 0 m/s 731 mmHg 91%
    07:00 +24°C° 0.1 mm 0 m/s 732 mmHg 87%
    08:00 +27°C° 0 mm 0 m/s 732 mmHg 74%
    09:00 +31°C° 0 mm 1 m/s 732 mmHg 61%
    10:00 +34°C° 0 mm 1 m/s 732 mmHg 49%
    11:00 +36°C° 0 mm 1 m/s 731 mmHg 43%
    12:00 +39°C° 0 mm 1 m/s 730 mmHg 38%
    13:00 +38°C° 0 mm 0 m/s 729 mmHg 33%
    14:00 +37°C° 0 mm 1 m/s 729 mmHg 41%
    15:00 +34°C° 0 mm 1 m/s 728 mmHg 50%
    16:00 +31°C° 0 mm 1 m/s 728 mmHg 59%
    17:00 +29°C° 1.2 mm 1 m/s 729 mmHg 69%
    18:00 +28°C° 1.2 mm 1 m/s 729 mmHg 79%
    19:00 +24°C° 1.2 mm 0 m/s 729 mmHg 90%
    20:00 +25°C° 0.6 mm 1 m/s 730 mmHg 91%
    21:00 +25°C° 0.6 mm 1 m/s 730 mmHg 93%
    22:00 +25°C° 0.6 mm 1 m/s 731 mmHg 94%
    23:00 +25°C° 0.2 mm 1 m/s 731 mmHg 94%

    26 Septembre, Mercredi

    Heure Température Précipitation Vent Pression Humidité
    00:00 +25°C° 0.2 mm 1 m/s 730 mmHg 94%
    01:00 +25°C° 0.2 mm 1 m/s 730 mmHg 95%
    02:00 +24°C° 0.2 mm 1 m/s 730 mmHg 95%
    03:00 +24°C° 0.2 mm 1 m/s 730 mmHg 95%
    04:00 +24°C° 0.2 mm 1 m/s 730 mmHg 96%
    05:00 +25°C° 0 mm 1 m/s 730 mmHg 94%
    06:00 +25°C° 0 mm 1 m/s 731 mmHg 92%
    07:00 +26°C° 0 mm 1 m/s 732 mmHg 90%
    08:00 +27°C° 0.9 mm 1 m/s 732 mmHg 84%
    09:00 +29°C° 0.9 mm 1 m/s 732 mmHg 79%
    10:00 +30°C° 0.9 mm 2 m/s 732 mmHg 73%
    11:00 +31°C° 1.4 mm 1 m/s 731 mmHg 73%
    12:00 +31°C° 1.4 mm 1 m/s 730 mmHg 73%
    13:00 +31°C° 1.4 mm 1 m/s 729 mmHg 72%
    14:00 +31°C° 0.2 mm 1 m/s 729 mmHg 72%
    15:00 +30°C° 0.2 mm 1 m/s 729 mmHg 72%
    16:00 +30°C° 0.2 mm 1 m/s 729 mmHg 72%
    17:00 +29°C° 0 mm 1 m/s 729 mmHg 77%
    18:00 +28°C° 0 mm 1 m/s 729 mmHg 82%
    19:00 +26°C° 0 mm 1 m/s 730 mmHg 87%
    20:00 +24°C° 0.1 mm 0 m/s 730 mmHg 88%
    21:00 +24°C° 0.1 mm 0 m/s 730 mmHg 89%
    22:00 +23°C° 0.1 mm 0 m/s 730 mmHg 90%
    23:00 +23°C° 0 mm 0 m/s 730 mmHg 90%

    27 Septembre, Jeudi

    Heure Température Précipitation Vent Pression Humidité
    00:00 +23°C° 0 mm 0 m/s 729 mmHg 90%
    01:00 +23°C° 0 mm 0 m/s 729 mmHg 90%
    02:00 +22°C° 0 mm 0 m/s 729 mmHg 90%
    03:00 +22°C° 0 mm 0 m/s 729 mmHg 91%
    04:00 +22°C° 0 mm 0 m/s 729 mmHg 91%
    05:00 +23°C° 0 mm 0 m/s 730 mmHg 90%
    06:00 +23°C° 0 mm 0 m/s 730 mmHg 88%
    07:00 +26°C° 0 mm 1 m/s 731 mmHg 87%
    08:00 +29°C° 0.1 mm 1 m/s 731 mmHg 76%
    09:00 +31°C° 0.1 mm 1 m/s 732 mmHg 65%
    10:00 +34°C° 0.1 mm 1 m/s 732 mmHg 54%
    11:00 +34°C° 0.2 mm 1 m/s 731 mmHg 51%
    12:00 +35°C° 0.2 mm 1 m/s 730 mmHg 47%
    13:00 +35°C° 0.2 mm 1 m/s 729 mmHg 44%
    14:00 +35°C° 0 mm 1 m/s 728 mmHg 47%
    15:00 +34°C° 0 mm 1 m/s 728 mmHg 49%
    16:00 +32°C° 0 mm 0 m/s 728 mmHg 52%
    17:00 +30°C° 0.1 mm 0 m/s 728 mmHg 59%
    18:00 +28°C° 0.1 mm 0 m/s 729 mmHg 66%
    19:00 +26°C° 0.1 mm 0 m/s 729 mmHg 73%
    20:00 +25°C° 0.3 mm 0 m/s 729 mmHg 78%
    21:00 +24°C° 0.3 mm 0 m/s 730 mmHg 83%
    22:00 +25°C° 0.3 mm 1 m/s 730 mmHg 88%
    23:00 +25°C° 0.1 mm 1 m/s 729 mmHg 89%
    Voir plus